Location: Gloden
(48.4833°N, 15.3167°E)
Time: 09:50:08
(UTC+00:00)

ADEOS Rocket - Pass Details

Date: 15 December 2019
Orbit: 858 x 1307 km, 98.7° (Epoch: 18 January)

Event Time Altitude Azimuth Distance (km) Brightness Sun altitude
Rises 05:51:24 0° 179° (S) 4,003 6.6 -8.3°
Reaches altitude 10° 05:54:11 10° 184° (S) 2,982 5.9 -7.8°
Maximum altitude 06:00:43 52° 260° (W) 1,264 3.4 -6.9°
Drops below altitude 10° 06:06:38 10° 336° (NNW) 2,705 4.9 -6.0°
Sets 06:09:04 0° 342° (NNW) 3,603 5.5 -5.7°
